| time (UTC) | temp F | wind direction | speed MPH | gust MPH | rain 1hr in | rain 24hr in | rain mn in | humidity % | barometer mb |
| 20260506062221 | 70 | 194 | 1.0 | 5.0 | 0.00 | 0.00 | 0.00 | 57 | 1010.0 |
| 20260506061722 | 70 | 194 | 2.0 | 5.0 | 0.00 | 0.00 | 0.00 | 57 | 1010.1 |
| 20260506061220 | 70 | 203 | 1.0 | 6.0 | 0.00 | 0.00 | 0.00 | 57 | 1010.1 |
| 20260506060721 | 70 | 214 | 3.0 | 6.0 | 0.00 | 0.00 | 0.00 | 56 | 1010.1 |
| 20260506060221 | 70 | 201 | 2.0 | 3.0 | 0.00 | 0.00 | 0.00 | 56 | 1010.1 |
| 20260506051220 | 71 | 191 | 2.0 | 5.0 | 0.00 | 0.00 | 0.00 | 55 | 1010.4 |
| 20260506050721 | 71 | 199 | 1.0 | 5.0 | 0.00 | 0.00 | 0.00 | 54 | 1010.6 |
| 20260506050221 | 71 | 201 | 3.0 | 6.0 | 0.00 | 0.00 | 0.00 | 54 | 1010.6 |
| 20260506044722 | 71 | 200 | 2.0 | 6.0 | 0.00 | 0.00 | 0.00 | 53 | 1010.5 |
| 20260506044220 | 71 | 180 | 2.0 | 6.0 | 0.00 | 0.00 | 0.00 | 53 | 1010.5 |
| 20260506043723 | 71 | 194 | 3.0 | 6.0 | 0.00 | 0.00 | 0.00 | 53 | 1010.5 |
| 20260506043222 | 71 | 206 | 3.0 | 8.0 | 0.00 | 0.00 | 0.00 | 53 | 1010.6 |
| 20260506042720 | 71 | 190 | 3.0 | 8.0 | 0.00 | 0.00 | 0.00 | 53 | 1010.6 |
| 20260506042221 | 71 | 196 | 3.0 | 7.0 | 0.00 | 0.00 | 0.00 | 52 | 1010.5 |
| 20260506041721 | 71 | 189 | 2.0 | 7.0 | 0.00 | 0.00 | 0.00 | 52 | 1010.6 |
| 20260506041220 | 72 | 196 | 3.0 | 7.0 | 0.00 | 0.00 | 0.00 | 52 | 1010.6 |
| 20260506040723 | 72 | 198 | 3.0 | 7.0 | 0.00 | 0.00 | 0.00 | 51 | 1010.5 |
| 20260506040222 | 72 | 203 | 4.0 | 8.0 | 0.00 | 0.00 | 0.00 | 51 | 1010.5 |
| 20260506035721 | 72 | 203 | 3.0 | 8.0 | 0.00 | 0.00 | 0.00 | 51 | 1010.5 |
| 20260506035221 | 72 | 210 | 3.0 | 8.0 | 0.00 | 0.00 | 0.00 | 51 | 1010.5 |
| 20260506034720 | 72 | 197 | 2.0 | 7.0 | 0.00 | 0.00 | 0.00 | 51 | 1010.5 |
| 20260506034220 | 72 | 190 | 2.0 | 7.0 | 0.00 | 0.00 | 0.00 | 51 | 1010.4 |
| 20260506033721 | 72 | 184 | 1.0 | 7.0 | 0.00 | 0.00 | 0.00 | 50 | 1010.4 |
| 20260506033220 | 72 | 213 | 3.0 | 7.0 | 0.00 | 0.00 | 0.00 | 50 | 1010.6 |
| 20260506032720 | 72 | 185 | 3.0 | 7.0 | 0.00 | 0.00 | 0.00 | 50 | 1010.5 |
| 20260506032220 | 72 | 188 | 2.0 | 6.0 | 0.00 | 0.00 | 0.00 | 49 | 1010.5 |
| 20260506031721 | 72 | 189 | 1.0 | 6.0 | 0.00 | 0.00 | 0.00 | 49 | 1010.4 |
| 20260506031221 | 72 | 191 | 3.0 | 5.0 | 0.00 | 0.00 | 0.00 | 48 | 1010.4 |
| 20260506030722 | 72 | 196 | 2.0 | 5.0 | 0.00 | 0.00 | 0.00 | 47 | 1010.4 |
| 20260506025720 | 72 | 196 | 1.0 | 6.0 | 0.00 | 0.00 | 0.00 | 47 | 1010.3 |
| 20260506025220 | 72 | 195 | 3.0 | 5.0 | 0.00 | 0.00 | 0.00 | 47 | 1010.3 |
| 20260506024722 | 72 | 190 | 2.0 | 6.0 | 0.00 | 0.00 | 0.00 | 47 | 1010.4 |
| 20260506024220 | 72 | 199 | 3.0 | 6.0 | 0.00 | 0.00 | 0.00 | 46 | 1010.5 |
| 20260506023722 | 72 | 196 | 2.0 | 5.0 | 0.00 | 0.00 | 0.00 | 45 | 1010.5 |
| 20260506023221 | 72 | 195 | 2.0 | 5.0 | 0.00 | 0.00 | 0.00 | 46 | 1010.5 |
| 20260506022715 | 72 | 190 | 1.0 | 5.0 | 0.00 | 0.00 | 0.00 | 45 | 1010.5 |
| 20260506022215 | 72 | 190 | 1.0 | 5.0 | 0.00 | 0.00 | 0.00 | 44 | 1010.6 |
| 20260506021716 | 72 | 190 | 0.0 | 3.0 | 0.00 | 0.00 | 0.00 | 44 | 1010.6 |
| 20260506021215 | 72 | 190 | 0.0 | 3.0 | 0.00 | 0.00 | 0.00 | 43 | 1010.6 |
| 20260506020715 | 72 | 190 | 0.0 | 3.0 | 0.00 | 0.00 | 0.00 | 42 | 1010.5 |
| 20260506020216 | 72 | 190 | 0.0 | 3.0 | 0.00 | 0.00 | 0.00 | 42 | 1010.4 |
| 20260506015715 | 72 | 190 | 0.0 | 2.0 | 0.00 | 0.00 | 0.00 | 42 | 1010.4 |
| 20260506015214 | 73 | 193 | 0.0 | 2.0 | 0.00 | 0.00 | 0.00 | 40 | 1010.3 |
| 20260506014715 | 73 | 198 | 0.0 | 2.0 | 0.00 | 0.00 | 0.00 | 40 | 1010.3 |
| 20260506014214 | 73 | 198 | 0.0 | 0.0 | 0.00 | 0.00 | 0.00 | 39 | 1010.3 |
| 20260506013715 | 74 | 198 | 0.0 | 3.0 | 0.00 | 0.00 | 0.00 | 39 | 1010.3 |
| 20260506013215 | 74 | 198 | 0.0 | 3.0 | 0.00 | 0.00 | 0.00 | 38 | 1010.2 |
| 20260506012715 | 74 | 198 | 1.0 | 5.0 | 0.00 | 0.00 | 0.00 | 38 | 1010.0 |
| 20260506012218 | 74 | 198 | 1.0 | 5.0 | 0.00 | 0.00 | 0.00 | 37 | 1010.0 |
| 20260506011717 | 74 | 198 | 2.0 | 5.0 | 0.00 | 0.00 | 0.00 | 35 | 1010.0 |
| 20260506011218 | 75 | 188 | 2.0 | 5.0 | 0.00 | 0.00 | 0.00 | 35 | 1010.0 |
| 20260506010718 | 75 | 201 | 1.0 | 5.0 | 0.00 | 0.00 | 0.00 | 35 | 1010.0 |
| 20260506010218 | 75 | 191 | 2.0 | 3.0 | 0.00 | 0.00 | 0.00 | 35 | 1009.9 |
| 20260506005719 | 75 | 193 | 2.0 | 5.0 | 0.00 | 0.00 | 0.00 | 34 | 1009.9 |
| 20260506005219 | 75 | 191 | 2.0 | 5.0 | 0.00 | 0.00 | 0.00 | 34 | 1009.7 |
| 20260506004719 | 75 | 195 | 1.0 | 5.0 | 0.00 | 0.00 | 0.00 | 34 | 1009.7 |
| 20260506004218 | 76 | 207 | 3.0 | 5.0 | 0.00 | 0.00 | 0.00 | 34 | 1009.7 |
| 20260506003718 | 75 | 205 | 2.0 | 5.0 | 0.00 | 0.00 | 0.00 | 34 | 1009.6 |
| 20260506003219 | 75 | 202 | 2.0 | 3.0 | 0.00 | 0.00 | 0.00 | 34 | 1009.6 |
| 20260506002718 | 75 | 201 | 2.0 | 5.0 | 0.00 | 0.00 | 0.00 | 34 | 1009.6 |
| 20260506002217 | 76 | 186 | 0.0 | 5.0 | 0.00 | 0.00 | 0.00 | 34 | 1009.5 |
| 20260506001720 | 76 | 202 | 0.0 | 5.0 | 0.00 | 0.00 | 0.00 | 33 | 1009.5 |
| 20260506001218 | 76 | 215 | 0.0 | 6.0 | 0.00 | 0.00 | 0.00 | 33 | 1009.4 |
| 20260506000718 | 77 | 218 | 3.0 | 6.0 | 0.00 | 0.00 | 0.00 | 33 | 1009.2 |
| 20260506000219 | 77 | 213 | 1.0 | 6.0 | 0.00 | 0.00 | 0.00 | 32 | 1009.3 |
| 20260505235717 | 77 | 198 | 2.0 | 6.0 | 0.00 | 0.00 | 0.00 | 32 | 1009.3 |
| 20260505235220 | 77 | 183 | 3.0 | 6.0 | 0.00 | 0.00 | 0.00 | 32 | 1009.4 |
| 20260505234718 | 77 | 204 | 1.0 | 6.0 | 0.00 | 0.00 | 0.00 | 31 | 1009.3 |
| 20260505234219 | 77 | 198 | 2.0 | 5.0 | 0.00 | 0.00 | 0.00 | 31 | 1009.2 |
| 20260505233718 | 78 | 195 | 2.0 | 6.0 | 0.00 | 0.00 | 0.00 | 30 | 1009.2 |
| 20260505233218 | 78 | 222 | 3.0 | 7.0 | 0.00 | 0.00 | 0.00 | 31 | 1009.1 |
| 20260505232718 | 78 | 197 | 3.0 | 7.0 | 0.00 | 0.00 | 0.00 | 30 | 1009.1 |
| 20260505232222 | 78 | 193 | 3.0 | 7.0 | 0.00 | 0.00 | 0.00 | 30 | 1009.1 |
| 20260505231720 | 78 | 209 | 5.0 | 7.0 | 0.00 | 0.00 | 0.00 | 30 | 1009.2 |
| 20260505231221 | 78 | 208 | 5.0 | 8.0 | 0.00 | 0.00 | 0.00 | 30 | 1009.1 |
| 20260505230720 | 78 | 241 | 5.0 | 8.0 | 0.00 | 0.00 | 0.00 | 31 | 1009.2 |
| 20260505230221 | 78 | 187 | 3.0 | 7.0 | 0.00 | 0.00 | 0.00 | 31 | 1009.2 |
| 20260505225721 | 78 | 170 | 3.0 | 8.0 | 0.00 | 0.00 | 0.00 | 32 | 1009.1 |
| 20260505225220 | 78 | 199 | 3.0 | 8.0 | 0.00 | 0.00 | 0.00 | 30 | 1009.2 |
| 20260505224720 | 78 | 212 | 2.0 | 6.0 | 0.00 | 0.00 | 0.00 | 31 | 1009.4 |
| 20260505224223 | 79 | 216 | 3.0 | 7.0 | 0.00 | 0.00 | 0.00 | 31 | 1009.4 |
| 20260505223721 | 79 | 197 | 3.0 | 8.0 | 0.00 | 0.00 | 0.00 | 32 | 1009.3 |
| 20260505223221 | 79 | 198 | 3.0 | 8.0 | 0.00 | 0.00 | 0.00 | 32 | 1009.3 |
| 20260505222718 | 79 | 196 | 2.0 | 9.0 | 0.00 | 0.00 | 0.00 | 31 | 1009.4 |
| 20260505222218 | 79 | 220 | 4.0 | 9.0 | 0.00 | 0.00 | 0.00 | 30 | 1009.3 |
| 20260505221717 | 79 | 185 | 3.0 | 9.0 | 0.00 | 0.00 | 0.00 | 31 | 1009.3 |
| 20260505221218 | 79 | 196 | 3.0 | 8.0 | 0.00 | 0.00 | 0.00 | 32 | 1009.3 |
| 20260505220718 | 79 | 178 | 3.0 | 8.0 | 0.00 | 0.00 | 0.00 | 31 | 1009.3 |
| 20260505220219 | 79 | 195 | 5.0 | 7.0 | 0.00 | 0.00 | 0.00 | 31 | 1009.2 |
| 20260505215717 | 79 | 213 | 4.0 | 7.0 | 0.00 | 0.00 | 0.00 | 31 | 1009.2 |
| 20260505215219 | 79 | 221 | 2.0 | 8.0 | 0.00 | 0.00 | 0.00 | 31 | 1009.2 |
| 20260505214719 | 79 | 201 | 4.0 | 10.0 | 0.00 | 0.00 | 0.00 | 31 | 1009.2 |
| 20260505214217 | 79 | 186 | 6.0 | 10.0 | 0.00 | 0.00 | 0.00 | 31 | 1009.2 |
| 20260505213717 | 80 | 190 | 4.0 | 7.0 | 0.00 | 0.00 | 0.00 | 33 | 1009.1 |
| 20260505213218 | 80 | 207 | 3.0 | 9.0 | 0.00 | 0.00 | 0.00 | 34 | 1009.2 |
| 20260505212718 | 80 | 218 | 3.0 | 9.0 | 0.00 | 0.00 | 0.00 | 32 | 1009.1 |
| 20260505212221 | 80 | 206 | 3.0 | 9.0 | 0.00 | 0.00 | 0.00 | 35 | 1009.1 |
| 20260505211721 | 80 | 192 | 2.0 | 6.0 | 0.00 | 0.00 | 0.00 | 34 | 1009.0 |
| 20260505211221 | 80 | 193 | 3.0 | 9.0 | 0.00 | 0.00 | 0.00 | 33 | 1009.0 |
| 20260505210720 | 81 | 203 | 3.0 | 9.0 | 0.00 | 0.00 | 0.00 | 33 | 1009.0 |
| 20260505210221 | 80 | 192 | 1.0 | 6.0 | 0.00 | 0.00 | 0.00 | 32 | 1008.9 |
| 20260505205720 | 80 | 205 | 3.0 | 8.0 | 0.00 | 0.00 | 0.00 | 31 | 1008.9 |
| 20260505205221 | 80 | 190 | 3.0 | 8.0 | 0.00 | 0.00 | 0.00 | 31 | 1009.0 |
| 20260505204721 | 80 | 195 | 3.0 | 9.0 | 0.00 | 0.00 | 0.00 | 30 | 1009.0 |
| 20260505204221 | 81 | 208 | 3.0 | 9.0 | 0.00 | 0.00 | 0.00 | 29 | 1009.0 |
| 20260505203721 | 81 | 208 | 5.0 | 9.0 | 0.00 | 0.00 | 0.00 | 30 | 1009.0 |
| 20260505203222 | 81 | 234 | 3.0 | 8.0 | 0.00 | 0.00 | 0.00 | 31 | 1009.0 |
| 20260505202721 | 81 | 202 | 3.0 | 6.0 | 0.00 | 0.00 | 0.00 | 31 | 1009.0 |
| 20260505202503 | 81 | 184 | 2.0 | 8.0 | 0.00 | 0.00 | 0.00 | 31 | 1009.0 |
| 20260505202004 | 81 | 254 | 1.0 | 9.0 | 0.00 | 0.00 | 0.00 | 31 | 1009.0 |
| 20260505201503 | 81 | 215 | 3.0 | 9.0 | 0.00 | 0.00 | 0.00 | 31 | 1009.0 |
| 20260505201005 | 81 | 195 | 3.0 | 9.0 | 0.00 | 0.00 | 0.00 | 30 | 1009.1 |
| 20260505200218 | 81 | 208 | 5.0 | 9.0 | 0.00 | 0.00 | 0.00 | 29 | 1009.1 |
| 20260505195718 | 81 | 184 | 3.0 | 9.0 | 0.00 | 0.00 | 0.00 | 30 | 1009.4 |
| 20260505195217 | 81 | 213 | 6.0 | 9.0 | 0.00 | 0.00 | 0.00 | 29 | 1009.4 |
| 20260505194718 | 81 | 199 | 4.0 | 8.0 | 0.00 | 0.00 | 0.00 | 31 | 1009.4 |
| 20260505194218 | 81 | 182 | 3.0 | 10.0 | 0.00 | 0.00 | 0.00 | 30 | 1009.4 |
| 20260505193718 | 81 | 189 | 6.0 | 10.0 | 0.00 | 0.00 | 0.00 | 30 | 1009.5 |
| 20260505193218 | 81 | 201 | 3.0 | 9.0 | 0.00 | 0.00 | 0.00 | 31 | 1009.4 |
| 20260505192720 | 81 | 190 | 5.0 | 9.0 | 0.00 | 0.00 | 0.00 | 31 | 1009.5 |
| 20260505192218 | 81 | 210 | 5.0 | 9.0 | 0.00 | 0.00 | 0.00 | 32 | 1009.6 |
| 20260505191720 | 81 | 214 | 4.0 | 9.0 | 0.00 | 0.00 | 0.00 | 32 | 1009.7 |
| 20260505191218 | 81 | 186 | 3.0 | 8.0 | 0.00 | 0.00 | 0.00 | 32 | 1009.8 |
| 20260505190717 | 81 | 175 | 3.0 | 8.0 | 0.00 | 0.00 | 0.00 | 32 | 1009.8 |
| 20260505190218 | 81 | 199 | 3.0 | 8.0 | 0.00 | 0.00 | 0.00 | 32 | 1009.9 |
| 20260505185718 | 81 | 196 | 4.0 | 8.0 | 0.00 | 0.00 | 0.00 | 31 | 1010.0 |
| 20260505185217 | 81 | 198 | 5.0 | 9.0 | 0.00 | 0.00 | 0.00 | 33 | 1009.9 |
| 20260505184718 | 81 | 194 | 3.0 | 9.0 | 0.00 | 0.00 | 0.00 | 35 | 1009.9 |
| 20260505184217 | 81 | 204 | 3.0 | 8.0 | 0.00 | 0.00 | 0.00 | 32 | 1010.0 |
| 20260505183719 | 81 | 204 | 3.0 | 8.0 | 0.00 | 0.00 | 0.00 | 31 | 1010.0 |
| 20260505183218 | 81 | 198 | 4.0 | 8.0 | 0.00 | 0.00 | 0.00 | 35 | 1010.5 |
| 20260505182715 | 81 | 204 | 3.0 | 8.0 | 0.00 | 0.00 | 0.00 | 32 | 1010.5 |
| 20260505182215 | 81 | 220 | 2.0 | 7.0 | 0.00 | 0.00 | 0.00 | 33 | 1010.5 |
| 20260505181715 | 81 | 182 | 3.0 | 7.0 | 0.00 | 0.00 | 0.00 | 34 | 1010.5 |
| 20260505181215 | 80 | 190 | 3.0 | 7.0 | 0.00 | 0.00 | 0.00 | 34 | 1010.5 |
| 20260505180715 | 80 | 222 | 3.0 | 6.0 | 0.00 | 0.00 | 0.00 | 36 | 1010.6 |
| 20260505180216 | 80 | 201 | 1.0 | 8.0 | 0.00 | 0.00 | 0.00 | 36 | 1010.6 |
| 20260505175716 | 79 | 233 | 2.0 | 8.0 | 0.00 | 0.00 | 0.00 | 39 | 1010.6 |
| 20260505175216 | 79 | 196 | 2.0 | 6.0 | 0.00 | 0.00 | 0.00 | 40 | 1010.6 |
| 20260505174715 | 79 | 201 | 2.0 | 6.0 | 0.00 | 0.00 | 0.00 | 42 | 1010.7 |
| 20260505174215 | 79 | 184 | 4.0 | 7.0 | 0.00 | 0.00 | 0.00 | 43 | 1010.9 |
| 20260505173715 | 79 | 156 | 3.0 | 7.0 | 0.00 | 0.00 | 0.00 | 41 | 1010.9 |
| 20260505173215 | 79 | 187 | 3.0 | 6.0 | 0.00 | 0.00 | 0.00 | 39 | 1010.9 |
| 20260505172718 | 79 | 198 | 1.0 | 5.0 | 0.00 | 0.00 | 0.00 | 40 | 1010.9 |
| 20260505172219 | 79 | 218 | 2.0 | 6.0 | 0.00 | 0.00 | 0.00 | 40 | 1010.9 |
| 20260505171718 | 79 | 227 | 2.0 | 6.0 | 0.00 | 0.00 | 0.00 | 41 | 1011.0 |
| 20260505171218 | 79 | 251 | 2.0 | 3.0 | 0.00 | 0.00 | 0.00 | 41 | 1011.0 |
| 20260505170717 | 79 | 187 | 2.0 | 9.0 | 0.00 | 0.00 | 0.00 | 38 | 1011.1 |
| 20260505170218 | 78 | 264 | 1.0 | 9.0 | 0.00 | 0.00 | 0.00 | 38 | 1011.3 |
| 20260505165719 | 78 | 219 | 0.0 | 6.0 | 0.00 | 0.00 | 0.00 | 36 | 1011.3 |
| 20260505165218 | 78 | 223 | 1.0 | 6.0 | 0.00 | 0.00 | 0.00 | 38 | 1011.3 |
| 20260505164717 | 78 | 191 | 3.0 | 7.0 | 0.00 | 0.00 | 0.00 | 42 | 1011.3 |
| 20260505164218 | 78 | 193 | 3.0 | 7.0 | 0.00 | 0.00 | 0.00 | 40 | 1011.6 |
| 20260505163718 | 78 | 171 | 2.0 | 7.0 | 0.00 | 0.00 | 0.00 | 42 | 1011.6 |
| 20260505163217 | 78 | 232 | 2.0 | 7.0 | 0.00 | 0.00 | 0.00 | 41 | 1011.6 |
| 20260505162721 | 78 | 245 | 2.0 | 6.0 | 0.00 | 0.00 | 0.00 | 40 | 1011.7 |
| 20260505162218 | 78 | 213 | 0.0 | 6.0 | 0.00 | 0.00 | 0.00 | 43 | 1011.8 |
| 20260505161719 | 77 | 216 | 2.0 | 6.0 | 0.00 | 0.00 | 0.00 | 45 | 1011.9 |
| 20260505161217 | 77 | 271 | 1.0 | 5.0 | 0.00 | 0.00 | 0.00 | 43 | 1011.9 |
| 20260505160718 | 77 | 197 | 2.0 | 5.0 | 0.00 | 0.00 | 0.00 | 44 | 1011.9 |
| 20260505160218 | 77 | 192 | 2.0 | 3.0 | 0.00 | 0.00 | 0.00 | 45 | 1011.9 |
| 20260505153218 | 76 | 204 | 2.0 | 3.0 | 0.00 | 0.00 | 0.00 | 46 | 1012.1 |
| 20260505152718 | 75 | 233 | 2.0 | 6.0 | 0.00 | 0.00 | 0.00 | 45 | 1012.0 |
| 20260505152219 | 75 | 274 | 2.0 | 6.0 | 0.00 | 0.00 | 0.00 | 45 | 1012.0 |
| 20260505151718 | 75 | 217 | 1.0 | 5.0 | 0.00 | 0.00 | 0.00 | 46 | 1011.9 |
| 20260505151218 | 75 | 150 | 2.0 | 5.0 | 0.00 | 0.00 | 0.00 | 50 | 1011.9 |
| 20260505150718 | 74 | 198 | 1.0 | 3.0 | 0.00 | 0.00 | 0.00 | 48 | 1011.9 |
| 20260505150218 | 74 | 198 | 1.0 | 3.0 | 0.00 | 0.00 | 0.00 | 48 | 1012.0 |
| 20260505140218 | 70 | 200 | 0.0 | 2.0 | 0.00 | 0.00 | 0.00 | 54 | 1012.1 |
| 20260505130221 | 64 | 165 | 0.0 | 3.0 | 0.00 | 0.00 | 0.00 | 61 | 1012.7 |
| 20260505124722 | 62 | 182 | 1.0 | 3.0 | 0.00 | 0.00 | 0.00 | 65 | 1012.6 |
| 20260505124221 | 62 | 182 | 1.0 | 3.0 | 0.00 | 0.00 | 0.00 | 66 | 1012.6 |
| 20260505123723 | 61 | 182 | 0.0 | 1.0 | 0.00 | 0.00 | 0.00 | 66 | 1012.6 |
| 20260505123222 | 61 | 181 | 0.0 | 0.0 | 0.00 | 0.00 | 0.00 | 67 | 1012.6 |
| 20260505122722 | 61 | 181 | 0.0 | 1.0 | 0.00 | 0.00 | 0.00 | 65 | 1012.5 |
| 20260505122221 | 61 | 181 | 0.0 | 1.0 | 0.00 | 0.00 | 0.00 | 68 | 1012.4 |
| 20260505121721 | 61 | 181 | 0.0 | 2.0 | 0.00 | 0.00 | 0.00 | 68 | 1012.4 |
| 20260505121221 | 60 | 181 | 1.0 | 3.0 | 0.00 | 0.00 | 0.00 | 66 | 1012.4 |
| 20260505120723 | 60 | 181 | 1.0 | 3.0 | 0.00 | 0.00 | 0.00 | 68 | 1012.4 |
| 20260505120221 | 59 | 181 | 0.0 | 2.0 | 0.00 | 0.00 | 0.00 | 70 | 1012.3 |
| 20260505115721 | 58 | 180 | 0.0 | 1.0 | 0.00 | 0.00 | 0.00 | 71 | 1012.3 |
| 20260505115222 | 58 | 180 | 0.0 | 0.0 | 0.00 | 0.00 | 0.00 | 74 | 1012.4 |
| 20260505114722 | 58 | 180 | 0.0 | 0.0 | 0.00 | 0.00 | 0.00 | 73 | 1012.3 |
| 20260505114221 | 58 | 180 | 0.0 | 2.0 | 0.00 | 0.00 | 0.00 | 73 | 1012.3 |
| 20260505113721 | 58 | 180 | 0.0 | 2.0 | 0.00 | 0.00 | 0.00 | 72 | 1012.2 |
| 20260505113224 | 58 | 180 | 0.0 | 1.0 | 0.00 | 0.00 | 0.00 | 74 | 1012.1 |
| 20260505112716 | 57 | 180 | 0.0 | 0.0 | 0.00 | 0.00 | 0.00 | 74 | 1012.1 |
| 20260505112215 | 57 | 180 | 0.0 | 0.0 | 0.00 | 0.00 | 0.00 | 75 | 1012.1 |
| 20260505111717 | 57 | 180 | 0.0 | 0.0 | 0.00 | 0.00 | 0.00 | 74 | 1012.1 |
| 20260505111215 | 57 | 180 | 0.0 | 0.0 | 0.00 | 0.00 | 0.00 | 74 | 1012.0 |
| 20260505110717 | 56 | 180 | 0.0 | 0.0 | 0.00 | 0.00 | 0.00 | 74 | 1011.9 |
| 20260505110216 | 56 | 180 | 0.0 | 0.0 | 0.00 | 0.00 | 0.00 | 76 | 1011.9 |
| 20260505102218 | 56 | 180 | 0.0 | 0.0 | 0.00 | 0.00 | 0.00 | 74 | 1011.4 |
| 20260505101721 | 56 | 180 | 0.0 | 0.0 | 0.00 | 0.00 | 0.00 | 72 | 1011.5 |
| 20260505101218 | 56 | 180 | 0.0 | 0.0 | 0.00 | 0.00 | 0.00 | 74 | 1011.6 |
| 20260505100719 | 56 | 180 | 0.0 | 0.0 | 0.00 | 0.00 | 0.00 | 74 | 1011.4 |
| 20260505100218 | 56 | 180 | 0.0 | 0.0 | 0.00 | 0.00 | 0.00 | 75 | 1011.3 |
| 20260505095718 | 57 | 180 | 0.0 | 0.0 | 0.00 | 0.00 | 0.00 | 73 | 1011.3 |
| 20260505095219 | 57 | 180 | 0.0 | 0.0 | 0.00 | 0.00 | 0.00 | 72 | 1011.3 |
| 20260505094718 | 57 | 180 | 0.0 | 0.0 | 0.00 | 0.00 | 0.00 | 72 | 1011.2 |
| 20260505094218 | 57 | 180 | 0.0 | 0.0 | 0.00 | 0.00 | 0.00 | 71 | 1011.1 |
| 20260505093719 | 57 | 180 | 0.0 | 0.0 | 0.00 | 0.00 | 0.00 | 70 | 1011.1 |
| 20260505093220 | 57 | 180 | 0.0 | 0.0 | 0.00 | 0.00 | 0.00 | 71 | 1011.1 |
| 20260505092716 | 57 | 180 | 0.0 | 0.0 | 0.00 | 0.00 | 0.00 | 70 | 1011.1 |
| 20260505092216 | 58 | 180 | 0.0 | 0.0 | 0.00 | 0.00 | 0.00 | 69 | 1011.1 |
| 20260505091716 | 58 | 180 | 0.0 | 0.0 | 0.00 | 0.00 | 0.00 | 69 | 1011.0 |
| 20260505091217 | 58 | 180 | 0.0 | 0.0 | 0.00 | 0.00 | 0.00 | 70 | 1011.1 |
| 20260505090715 | 58 | 180 | 0.0 | 2.0 | 0.00 | 0.00 | 0.00 | 70 | 1011.1 |
| 20260505090215 | 58 | 180 | 0.0 | 2.0 | 0.00 | 0.00 | 0.00 | 70 | 1011.2 |
| 20260505085716 | 58 | 180 | 1.0 | 2.0 | 0.00 | 0.00 | 0.00 | 69 | 1011.2 |
| 20260505085215 | 58 | 180 | 0.0 | 0.0 | 0.00 | 0.00 | 0.00 | 69 | 1011.2 |
| 20260505084716 | 58 | 180 | 0.0 | 2.0 | 0.00 | 0.00 | 0.00 | 69 | 1011.2 |
| 20260505084216 | 58 | 180 | 0.0 | 2.0 | 0.00 | 0.00 | 0.00 | 69 | 1011.2 |
| 20260505083715 | 58 | 180 | 1.0 | 2.0 | 0.00 | 0.00 | 0.00 | 68 | 1011.1 |
| 20260505083216 | 59 | 180 | 1.0 | 2.0 | 0.00 | 0.00 | 0.00 | 68 | 1011.1 |
| 20260505082717 | 59 | 180 | 1.0 | 3.0 | 0.00 | 0.00 | 0.00 | 68 | 1011.1 |
| 20260505082218 | 59 | 180 | 1.0 | 3.0 | 0.00 | 0.00 | 0.00 | 68 | 1011.1 |
| 20260505081717 | 59 | 180 | 0.0 | 0.0 | 0.00 | 0.00 | 0.00 | 68 | 1011.1 |
| 20260505081216 | 59 | 180 | 0.0 | 0.0 | 0.00 | 0.00 | 0.00 | 67 | 1011.0 |
| 20260505080715 | 59 | 180 | 0.0 | 2.0 | 0.00 | 0.00 | 0.00 | 67 | 1011.0 |
| 20260505080217 | 59 | 180 | 0.0 | 2.0 | 0.00 | 0.00 | 0.00 | 67 | 1010.9 |
| 20260505075715 | 59 | 180 | 0.0 | 2.0 | 0.00 | 0.00 | 0.00 | 67 | 1010.9 |
| 20260505075215 | 59 | 180 | 0.0 | 2.0 | 0.00 | 0.00 | 0.00 | 67 | 1010.9 |
| 20260505074715 | 59 | 180 | 0.0 | 2.0 | 0.00 | 0.00 | 0.00 | 67 | 1010.9 |
| 20260505074215 | 59 | 180 | 0.0 | 2.0 | 0.00 | 0.00 | 0.00 | 67 | 1010.8 |
| 20260505073716 | 60 | 180 | 0.0 | 0.0 | 0.00 | 0.00 | 0.00 | 66 | 1010.8 |
| 20260505073215 | 60 | 180 | 0.0 | 0.0 | 0.00 | 0.00 | 0.00 | 66 | 1010.8 |
| 20260505072716 | 60 | 180 | 0.0 | 0.0 | 0.00 | 0.00 | 0.00 | 66 | 1010.8 |
| 20260505072218 | 60 | 180 | 0.0 | 2.0 | 0.00 | 0.00 | 0.00 | 66 | 1010.7 |
| 20260505071718 | 60 | 180 | 0.0 | 2.0 | 0.00 | 0.00 | 0.00 | 66 | 1010.7 |
| 20260505071220 | 60 | 180 | 0.0 | 0.0 | 0.00 | 0.00 | 0.00 | 66 | 1010.7 |
| 20260505070720 | 60 | 180 | 0.0 | 0.0 | 0.00 | 0.00 | 0.00 | 66 | 1010.7 |
| 20260505070219 | 60 | 180 | 0.0 | 0.0 | 0.00 | 0.00 | 0.00 | 66 | 1010.7 |